[[{"header":{"parameterUnit":"m.s-1","parameterCategory":1,"la1":30.2991,"la2":30.254,"lo1":-89.0895,"lo2":-89.0444,"dy":0.0017,"dx":0.0017,"nx":28,"ny":28,"refTime":"2023-10-25T09:00:00:Z","depth":0,"parameterNumber":2,"parameterNumberName":"U-component_of_WINDS"},"data":[0,0,0,0,0,0,0,0,0,0,0,0,0,0,0,0,0,0,0,0,0,0,0,0,0,0,0,0,0,0,0,0,0,0,0,0,0,0,0,0,0,0,0,0,0,0,0,0,0,0,0,0,0,0,0,0,0,0,-7.327,-7.3273,0,-7.3552,-7.3556,-7.3559,-7.3544,-7.354,-7.3536,-7.3532,-7.3811,-7.3822,-7.3833,0,0,0,0,0,0,0,0,0,0,0,0,0,-7.2711,-7.2721,-7.327,-7.3274,-7.3277,-7.3552,-7.3556,-7.356,-7.3545,-7.354,-7.3535,-7.353,-7.3807,-7.382,-7.3834,0,0,0,0,0,0,0,0,0,0,0,0,0,-7.2969,-7.2724,-7.3269,-7.3303,-7.3309,-7.3551,-7.3556,-7.3561,-7.3546,-7.354,-7.3534,-7.3528,-7.3803,-7.3819,-7.3836,-7.406,0,0,-7.3887,-7.3894,0,0,0,0,0,0,0,0,-7.2954,-7.2989,-7.3295,-7.3301,-7.3308,-7.3507,-7.3461,-7.3728,-7.3547,-7.3455,-7.3532,-7.3525,-7.3714,-7.3738,-7.3803,-7.4073,-7.4085,-7.3888,-7.3898,-7.3906,-7.391,0,0,0,0,0,0,0,-7.2936,-7.2977,-7.3381,-7.3299,-7.3307,-7.3302,-7.3332,-7.3511,-7.3615,-7.3463,-7.3463,-7.3497,-7.3716,-7.3787,-7.381,-7.4089,-7.3888,-7.3903,-7.3913,-7.3919,-7.4557,-7.4564,0,0,0,0,0,0,-7.2912,-7.2962,-7.3372,-7.339,-7.3113,-7.3317,-7.335,-7.3449,-7.3613,-7.3632,-7.3502,-7.3495,-7.3762,-7.379,-7.382,-7.4093,-7.3905,-7.3921,-7.3931,-7.455,-7.4559,-7.4566,0,0,0,0,0,0,-7.2901,-7.2949,-7.3361,-7.3176,-7.3228,-7.3333,-7.3444,-7.3458,-7.3529,-7.3642,-7.366,-7.3556,-7.3758,-7.3796,-7.4001,-7.4102,-7.3929,-7.3944,-7.4542,-7.4553,-7.4562,-7.4641,0,0,0,0,0,0,-7.2885,-7.2945,-7.3033,-7.3179,-7.3238,-7.354,-7.345,-7.3468,-7.3559,-7.3553,-7.3697,-7.3715,-7.3756,-7.3976,-7.4018,-7.4122,-7.3957,-7.4533,-7.4547,-7.4559,-7.463,-7.4653,-7.4672,0,0,0,0,0,-7.2865,-7.3041,-7.3037,-7.3087,-7.3351,-7.3546,-7.358,-7.3626,-7.3567,-7.3655,-7.3729,-7.3711,-7.4086,-7.3997,-7.4044,-7.4155,-7.4527,-7.4543,-7.4558,-7.462,-7.4648,-7.4672,0,0,0,0,0,0,-7.2899,-7.306,-7.3058,-7.3287,-7.3404,-7.3543,-7.3655,-7.3654,-7.3787,-7.3775,-7.3824,-7.3857,-7.4063,-7.413,-7.4029,-7.4381,-7.4298,-7.4324,-7.4329,-7.4357,-7.4378,-7.4356,-7.3971,0,0,0,0,0,-7.2935,-7.3083,-7.3214,-7.3404,-7.3463,-7.355,-7.3636,-7.3663,-7.3784,-7.3831,-7.3919,-7.4035,-7.4179,-7.4272,-7.441,-7.4641,-7.4671,-7.474,-7.4761,-7.4778,-7.4799,-7.4926,-7.4958,-7.4617,-7.4617,-7.4616,0,0,-7.3006,-7.3113,-7.3203,-7.3414,-7.3507,-7.3657,-7.3591,-7.3751,-7.3862,-7.3855,-7.4054,-7.4124,-7.4256,-7.4475,-7.4575,-7.4537,-7.4901,-7.4798,-7.4811,-7.4822,-7.4945,-7.4977,-7.5006,-7.4627,-7.4626,-7.4624,0,0,-7.3214,-7.3311,-7.348,-7.3577,-7.3721,-7.3778,-7.3819,-7.396,-7.4007,-7.421,-7.4208,-7.4339,-7.4586,-7.4681,-7.4761,-7.5011,-7.4999,-7.5054,-7.5164,-7.5287,-7.5314,-7.5338,-7.5426,-7.5457,-7.5075,-7.5075,-7.5075,0,-7.3284,-7.3514,-7.3566,-7.373,-7.3822,-7.3828,-7.3998,-7.4088,-7.4268,-7.4331,-7.4287,-7.4599,-7.4688,-7.4929,-7.499,-7.5056,-7.5102,-7.5036,-7.5307,-7.5332,-7.5355,-7.5439,-7.5472,-7.5081,-7.508,-7.508,-7.5079,0,-7.3593,-7.3752,-7.3871,-7.405,-7.4156,-7.4322,-7.4398,-7.4499,-7.4517,-7.4579,-7.4785,-7.4893,-7.5054,-7.5114,-7.5132,-7.5359,-7.5331,-7.5297,-7.5213,-7.5392,-7.5472,-7.5504,-7.5089,-7.5087,-7.5085,-7.5084,0,0,-7.3825,-7.4036,-7.4078,-7.416,-7.4322,-7.4444,-7.4611,-7.4773,-7.4858,-7.4984,-7.5123,-7.5334,-7.5305,-7.5396,-7.5425,-7.5534,-7.5724,-7.5486,-7.549,-7.5525,-7.598,-7.6003,-7.6039,-7.5719,-7.5726,-7.5731,-7.5968,0,-7.4048,-7.4347,-7.4401,-7.4661,-7.4808,-7.4818,-7.4963,-7.5077,-7.514,-7.5272,-7.534,-7.5489,-7.544,-7.5495,-7.5603,-7.5678,-7.5815,-7.5662,-7.5846,-7.5852,-7.581,-7.6081,-7.6105,-7.6324,-7.6,-7.6005,-7.6009,0,-7.4347,-7.4485,-7.4761,-7.4906,-7.4969,-7.5099,-7.5253,-7.5381,-7.551,-7.5548,-7.5653,-7.5671,-7.5842,-7.5756,-7.5991,-7.5886,-7.5965,-7.6014,-7.6023,-7.6039,-7.5939,-7.6102,-7.6395,-7.6426,-7.6059,-7.6055,-7.6051,0,-7.4486,-7.4741,-7.494,-7.501,-7.5184,-7.5275,-7.5351,-7.5476,-7.557,-7.5705,-7.5766,-7.5918,-7.5999,-7.6115,-7.6172,-7.6104,-7.6405,-7.6322,-7.6438,-7.6437,-7.6497,-7.6492,-7.6804,-7.6554,-7.6553,-7.6553,-7.6552,0,-7.4728,-7.4895,-7.5005,-7.5127,-7.5315,-7.5376,-7.556,-7.5634,-7.5745,-7.588,-7.5897,-7.6022,-7.6093,-7.6228,-7.6274,-7.6462,-7.6499,-7.6533,-7.6542,-7.653,-7.6525,-7.6579,-7.6564,-7.6562,-7.656,-7.6558,-7.6556,0,-7.4913,-7.4994,-7.521,-7.5361,-7.5402,-7.5534,-7.5661,-7.5778,-7.5844,-7.6014,-7.6057,-7.6158,-7.6318,-7.6389,-7.6585,-7.6616,-7.683,-7.683,-7.6788,-7.679,-7.6902,-7.6889,-7.7257,-7.7307,-7.7026,-7.7029,-7.7031,0,-7.5059,-7.519,-7.5355,-7.5449,-7.5529,-7.5679,-7.5778,-7.5844,-7.5945,-7.6106,-7.6203,-7.6366,-7.6498,-7.6754,-7.6843,-7.6994,-7.6995,-7.7114,-7.7017,-7.7001,-7.6994,-7.6985,-7.6997,-7.713,-7.7133,-7.7135,-7.7137,0,-7.5311,-7.5346,-7.5489,-7.5649,-7.5767,-7.5894,-7.6018,-7.6093,-7.6178,-7.6291,-7.6458,-7.6562,-7.6766,-7.6926,-7.7083,-7.7158,-7.7161,-7.7168,-7.7202,-7.7188,-7.7157,-7.7174,-7.6832,-7.7157,-7.7155,-7.7154,-7.7153,-7.7152,-7.5479,-7.5596,-7.5732,-7.5892,-7.5994,-7.6111,-7.623,-7.6313,-7.6454,-7.6628,-7.6658,-7.6836,-7.6964,-7.7176,-7.7259,-7.7397,-7.7367,-7.7417,-7.7429,-7.744,-7.7446,-7.714,-7.7426,-7.7425,-7.7425,-7.7424,-7.7424,0,-7.5729,-7.5819,-7.5966,-7.6142,-7.6268,-7.6267,-7.6406,-7.6509,-7.6667,-7.6789,-7.6921,-7.7113,-7.727,-7.7374,-7.7532,-7.7622,-7.7628,-7.7661,-7.7653,-7.767,-7.7464,-7.7418,-7.7655,-7.7655,-7.7654,-7.7654,-7.7654,-7.7654,-7.5873,-7.6071,-7.6123,-7.6372,-7.646,-7.6637,-7.6717,-7.6824,-7.6922,-7.7137,-7.727,-7.7339,-7.7453,-7.762,-7.7764,-7.779,-7.7846,-7.7881,-7.7905,-7.7709,-7.7685,-7.7662,-7.7618,-7.7893,-7.7893,-7.8099,-7.8101,-7.8102]},{"header":{"parameterUnit":"m.s-1","parameterCategory":1,"la1":30.2991,"la2":30.254,"lo1":-89.0895,"lo2":-89.0444,"dy":0.0017,"dx":0.0017,"nx":28,"ny":28,"refTime":"2023-10-25T09:00:00:Z","depth":0,"parameterNumber":3,"parameterNumberName":"V-component_of_WINDS"},"data":[0,0,0,0,0,0,0,0,0,0,0,0,0,0,0,0,0,0,0,0,0,0,0,0,0,0,0,0,0,0,0,0,0,0,0,0,0,0,0,0,0,0,0,0,0,0,0,0,0,0,0,0,0,0,0,0,0,0,0.4537,0.4541,0,0.487,0.4873,0.4877,0.5009,0.5008,0.5007,0.5006,0.5347,0.5357,0.5367,0,0,0,0,0,0,0,0,0,0,0,0,0,0.4023,0.4032,0.4537,0.4541,0.4545,0.4869,0.4874,0.4878,0.5009,0.5008,0.5007,0.5006,0.5344,0.5356,0.5368,0,0,0,0,0,0,0,0,0,0,0,0,0,0.429,0.4034,0.4536,0.465,0.4663,0.4868,0.4874,0.4879,0.5009,0.5008,0.5007,0.5006,0.534,0.5355,0.5369,0.5486,0,0,0.5415,0.5421,0,0,0,0,0,0,0,0,0.4274,0.4308,0.4629,0.4642,0.4658,0.4896,0.4817,0.5083,0.501,0.4878,0.5006,0.5005,0.5198,0.5225,0.529,0.5502,0.5517,0.5416,0.5425,0.5431,0.5435,0,0,0,0,0,0,0,0.4256,0.4295,0.4669,0.4633,0.4651,0.4686,0.4723,0.4868,0.5041,0.4889,0.49,0.4937,0.5206,0.5275,0.5299,0.5522,0.5415,0.5429,0.5438,0.5444,0.5855,0.5857,0,0,0,0,0,0,0.4218,0.4278,0.4658,0.4679,0.4459,0.4697,0.4737,0.4821,0.504,0.5072,0.4938,0.4942,0.5251,0.5282,0.5311,0.5469,0.5431,0.5445,0.5453,0.5853,0.5856,0.5858,0,0,0,0,0,0,0.4206,0.425,0.4645,0.4482,0.4535,0.4707,0.48,0.4828,0.4898,0.5077,0.5109,0.4976,0.5251,0.5291,0.5444,0.5482,0.5452,0.5465,0.5851,0.5854,0.5857,0.5779,0,0,0,0,0,0,0.4191,0.4245,0.4289,0.4482,0.4543,0.4769,0.4802,0.4836,0.4923,0.4931,0.5121,0.5152,0.5253,0.5421,0.5458,0.5502,0.5477,0.5848,0.5852,0.5856,0.5779,0.5779,0.5779,0,0,0,0,0,0.4172,0.4253,0.4291,0.4336,0.4601,0.4771,0.4806,0.4921,0.4925,0.4973,0.5089,0.5146,0.5471,0.5435,0.5479,0.5527,0.5846,0.5851,0.5855,0.5779,0.5779,0.5779,0,0,0,0,0,0,0.4059,0.428,0.4324,0.4469,0.4601,0.4793,0.4856,0.4916,0.5048,0.5051,0.5188,0.523,0.5373,0.5465,0.5421,0.5656,0.5663,0.5677,0.559,0.5592,0.5592,0.5567,0.5489,0,0,0,0,0,0.4051,0.4169,0.4356,0.4466,0.453,0.4681,0.4759,0.4837,0.4978,0.5034,0.5162,0.5297,0.5432,0.5516,0.5649,0.5793,0.5839,0.5848,0.5848,0.5847,0.5858,0.5948,0.5956,0.5873,0.5873,0.5873,0,0,0.4036,0.4171,0.4237,0.4447,0.4558,0.468,0.4727,0.4852,0.4945,0.5054,0.5207,0.5306,0.5467,0.5618,0.569,0.5699,0.5891,0.5853,0.5851,0.5863,0.5953,0.5961,0.5968,0.5876,0.5876,0.5875,0,0,0.4071,0.4183,0.429,0.4401,0.4569,0.4671,0.4696,0.4882,0.4952,0.5108,0.5194,0.5308,0.5533,0.5647,0.5734,0.582,0.5879,0.5859,0.586,0.5946,0.5953,0.5959,0.5995,0.6005,0.5869,0.5869,0.5869,0,0.4031,0.4216,0.4337,0.4461,0.4553,0.4659,0.4771,0.4873,0.5076,0.5138,0.5145,0.5436,0.5551,0.5734,0.5755,0.5821,0.5858,0.5838,0.5942,0.595,0.5958,0.5993,0.6006,0.5866,0.5866,0.5866,0.5867,0,0.4161,0.4289,0.4356,0.4551,0.4651,0.4767,0.491,0.4997,0.5068,0.5169,0.5331,0.5475,0.5641,0.569,0.5758,0.5884,0.5885,0.5915,0.5926,0.596,0.5996,0.6011,0.5861,0.5862,0.5863,0.5864,0,0,0.4131,0.4396,0.4419,0.4512,0.4708,0.4811,0.4935,0.5099,0.5174,0.5311,0.5422,0.5614,0.5646,0.5745,0.5828,0.5903,0.5969,0.5925,0.5931,0.5932,0.6123,0.6102,0.6115,0.6009,0.6012,0.6015,0.6111,0,0.4195,0.442,0.4536,0.4714,0.4837,0.4943,0.5052,0.5186,0.5286,0.5408,0.5518,0.5655,0.5683,0.5744,0.5823,0.5944,0.601,0.5938,0.6117,0.6122,0.6076,0.6133,0.6109,0.6193,0.6126,0.6128,0.613,0,0.4298,0.4437,0.4627,0.4816,0.4872,0.4968,0.5132,0.5245,0.5402,0.547,0.5584,0.5667,0.5806,0.5806,0.6003,0.5952,0.6033,0.6103,0.611,0.6133,0.6129,0.6161,0.6222,0.6236,0.6152,0.6151,0.6149,0,0.4262,0.4497,0.4643,0.4719,0.4941,0.5008,0.5104,0.5259,0.5353,0.5497,0.556,0.5717,0.5804,0.5925,0.6051,0.6038,0.6237,0.6246,0.6301,0.6298,0.6339,0.6335,0.6417,0.6385,0.6384,0.6384,0.6384,0,0.4322,0.4435,0.4631,0.4721,0.4853,0.4988,0.5116,0.522,0.5359,0.5474,0.5575,0.5681,0.5838,0.5965,0.6064,0.6216,0.6253,0.6314,0.634,0.6307,0.63,0.6363,0.6362,0.6388,0.6387,0.6386,0.6386,0,0.4304,0.4438,0.4606,0.4805,0.4858,0.4947,0.5119,0.5213,0.532,0.5465,0.5507,0.5676,0.5831,0.5969,0.6173,0.624,0.6397,0.6426,0.6344,0.6358,0.6407,0.6402,0.6536,0.6563,0.6508,0.6508,0.6508,0,0.4334,0.4424,0.4635,0.472,0.4815,0.4949,0.5047,0.5185,0.5283,0.5473,0.5545,0.5708,0.5847,0.6091,0.6233,0.6393,0.6429,0.6465,0.6453,0.642,0.6435,0.643,0.6442,0.6465,0.6464,0.6464,0.6464,0,0.4375,0.444,0.4576,0.4738,0.4852,0.4986,0.5123,0.5188,0.5353,0.5458,0.562,0.5727,0.594,0.6103,0.628,0.6382,0.6453,0.6467,0.649,0.6458,0.6409,0.6441,0.6347,0.6463,0.6464,0.6464,0.6464,0.6464,0.4385,0.4473,0.4637,0.4788,0.4907,0.5035,0.5135,0.5257,0.5394,0.5578,0.5652,0.5818,0.598,0.6225,0.6328,0.6462,0.6474,0.6504,0.6513,0.6519,0.6516,0.6386,0.6494,0.6494,0.6494,0.6495,0.6495,0,0.4435,0.4548,0.4685,0.4876,0.4997,0.5054,0.5211,0.5308,0.5453,0.5599,0.5735,0.5924,0.6085,0.6242,0.6412,0.6489,0.6527,0.653,0.6527,0.6551,0.6493,0.6459,0.6497,0.6497,0.6497,0.6497,0.6497,0.6497,0.4475,0.4629,0.4714,0.4931,0.5044,0.5208,0.5294,0.5414,0.5532,0.5739,0.5874,0.5976,0.6128,0.6311,0.6463,0.6506,0.6565,0.656,0.6612,0.6555,0.6553,0.6551,0.6521,0.6571,0.6571,0.6659,0.666,0.6661]}]]